{"data":{"norad_id":57170,"intl_designator":"2023-091E","name":"2023-091E","alt_names":[],"object_type":"PAYLOAD","status":"ACTIVE","operator":null,"country":"CIS","launch_date":"2023-06-27","launch_site_code":"VOSTO","launch_vehicle":null,"mission":null,"orbit_class":"UNKNOWN","rcs_meters":null,"size_class":null,"mass_kg":null,"dimensions":null,"purposes":[],"wikipedia_slug":null,"has_3d_model":false,"image_url":null,"decayed_at":null,"tle_current":{"epoch":"2026-05-25T04:56:09.398112Z","epoch_age_seconds":61250,"freshness":"FRESH","line1":"1 57170U 23091E   26145.20566433  .00008305  00000+0  34794-3 0  9997","line2":"2 57170  97.5130 206.7781 0009853 163.8578 196.2975 15.23745786160667","mean_motion":15.23745786,"eccentricity":0.0009853,"inclination_deg":97.513,"raan_deg":206.7781,"arg_perigee_deg":163.8578,"mean_anomaly_deg":196.2975,"bstar":0.00034794,"rev_number":16066,"period_min":94.503952905436,"perigee_km":487.78251757393,"apogee_km":501.32584281362,"semimajor_km":6872.6911801938,"source":"CELESTRAK","updated_at":"2026-05-25T13:37:59.904454Z"}}}